Location: Olsztyn
(53.7767°N, 20.4765°E)
Time: 07:22:04
(UTC+01:00)

Transit 4A - Pass Details

Date: 02 October 2022
Orbit: 871 x 972 km, 66.8° (Epoch: 06 December)

Event Time Altitude Azimuth Distance (km) Brightness Sun altitude
Exits shadow 03:50:21 10° 313° (NW) 2,604 10.1 -25.0°
Reaches altitude 10° 03:50:24 10° 314° (NW) 2,589 10.1 -25.0°
Maximum altitude 03:55:10 24° 7° (N) 1,775 9.7 -24.4°
Drops below altitude 10° 03:59:50 10° 60° (ENE) 2,544 11.3 -23.8°
Sets 04:02:50 0° 74° (ENE) 3,473 12.2 -23.4°
